Tracking 20370 objects as of 20-Feb-2020
HD Live streaming from Space Station
objects crossing your sky now
Track the group of recently launched Starlink satellites

COSMOS 1325

Track COSMOS 1325 now!
10-day predictions
COSMOS 1325 is classified as:


NORAD ID: 12980
Int'l Code: 1981-116F
Perigee: 1,487.6 km
Apogee: 1,624.3 km
Inclination: 74.0 °
Period: 117.1 minutes
Semi major axis: 7926 km
RCS: 0.7 m2 (medium)
Launch date: November 28, 1981
Source: Commonwealth of Independent States (former USSR) (CIS)
Launch site: PLESETSK MISSILE AND SPACE COMPLEX (PKMTR)
aabbcc
Your satellite tracking list
Your tracking list is empty




NASA's NSSDC Master Catalog

Two Line Element Set (TLE):
1 12980U 81116F   20050.50548816 -.00000015 +00000-0 +53069-5 0  9996
2 12980 073.9799 064.0204 0086253 277.2622 201.3816 12.30103781716533
Source of the keplerian elements: AFSPC